Chattanooga, TN

5:24 PM EST on December 03, 2016 (GMT -0500)
Lovell

Weather History for KCHA - November, 2014

Change the Weather History Date:

Saturday, November 22, 2014

  Actual Average Record
Temperature  
Mean Temperature 46 °F 49 °F  
Max Temperature 62 °F 60 °F 75 °F (1940)
Min Temperature 29 °F 38 °F 19 °F (2008)
Degree Days  
Heating Degree Days 19 16  
Month to date heating degree days 426 275  
Since 1 July heating degree days 546 447  
Moisture  
Dew Point 29 °F    
Average Humidity 57    
Maximum Humidity 85    
Minimum Humidity 29    
Precipitation  
Precipitation 0.00 in 0.19 in 3.00 in (1883)
Month to date precipitation 2.06 3.49  
Year to date precipitation 39.49 46.07  
Snow  
Snow 0.00 in 0.00 in - ()
Month to date snowfall T 0.0  
Since 1 July snowfall T 0.0  
Since 1 September snowfall T 0.0  
Snow Depth 0.00 in    
Sea Level Pressure  
Sea Level Pressure 30.35 in    
Wind  
Wind Speed 4 mph (South)    
Max Wind Speed 15 mph    
Max Gust Speed 20 mph    
Visibility 10 miles    
Events      
T = Trace of Precipitation, MM = Missing Value Source: NWS Daily Summary

Daily Weather History Graph

Daily Weather History Graph

Search for Another Location

Airport or City:

Trip Planner

Search our weather history database for the weather conditions in past years. The results will help you decide how hot, cold, wet, or windy it might be!

Date:

Astronomy

Nov. 22, 2014 Rise Set
Actual Time 7:22 AM EST 5:31 PM EST
Civil Twilight 6:54 AM EST 5:58 PM EST
Nautical Twilight 6:23 AM EST 6:29 PM EST
Astronomical Twilight 5:53 AM EST 7:00 PM EST
Moon 7:19 AM EST (11/22) 6:00 PM EST (11/22)
Length of Visible Light 11h 03m
Length of Day
10h 09m
New Moon, 0% of the Moon is Illuminated
Nov 22
New Moon
Nov 29
First Quarter
Dec 6
Full
Dec 14
Last Quarter
Dec 21
New

Hourly Weather History & Observations

Time (EST) Temp. Dew Point Humidity Pressure Visibility Wind Dir Wind Speed Gust Speed Precip Events Conditions
12:53 AM 33.1 °F 28.0 °F 82% 30.44 in 10.0 mi Calm Calm - N/A   Clear
1:53 AM 32.0 °F 28.0 °F 85% 30.44 in 10.0 mi Calm Calm - N/A   Clear
2:53 AM 30.9 °F 27.0 °F 85% 30.45 in 10.0 mi Calm Calm - N/A   Clear
3:53 AM 30.9 °F 27.0 °F 85% 30.45 in 9.0 mi Calm Calm - N/A   Clear
4:53 AM 30.9 °F 27.0 °F 85% 30.45 in 9.0 mi Calm Calm - N/A   Clear
5:53 AM 30.9 °F 27.0 °F 85% 30.46 in 10.0 mi Calm Calm - N/A   Clear
6:53 AM 30.0 °F 27.0 °F 88% 30.46 in 10.0 mi Calm Calm - N/A   Scattered Clouds
7:53 AM 32.0 °F 28.0 °F 85% 30.47 in 10.0 mi Calm Calm - N/A   Mostly Cloudy
8:53 AM 35.1 °F 30.0 °F 82% 30.48 in 10.0 mi Calm Calm - N/A   Mostly Cloudy
9:53 AM 44.1 °F 34.0 °F 68% 30.47 in 10.0 mi Calm Calm - N/A   Mostly Cloudy
10:53 AM 50.0 °F 32.0 °F 50% 30.43 in 10.0 mi Calm Calm - N/A   Scattered Clouds
11:53 AM 55.0 °F 30.9 °F 40% 30.39 in 10.0 mi SW 3.5 mph - N/A   Scattered Clouds
12:53 PM 59.0 °F 28.0 °F 31% 30.34 in 10.0 mi South 9.2 mph - N/A   Mostly Cloudy
1:53 PM 61.0 °F 30.0 °F 31% 30.32 in 10.0 mi South 15.0 mph - N/A   Mostly Cloudy
2:53 PM 61.0 °F 30.0 °F 31% 30.28 in 10.0 mi SSE 10.4 mph - N/A   Mostly Cloudy
3:53 PM 61.0 °F 28.9 °F 30% 30.25 in 10.0 mi SE 5.8 mph - N/A   Mostly Cloudy
4:53 PM 60.1 °F 28.9 °F 31% 30.24 in 10.0 mi SE 6.9 mph - N/A   Mostly Cloudy
5:53 PM 57.9 °F 28.9 °F 33% 30.24 in 10.0 mi SE 6.9 mph - N/A   Mostly Cloudy
6:53 PM 55.9 °F 28.9 °F 36% 30.24 in 10.0 mi South 3.5 mph - N/A   Mostly Cloudy
7:53 PM 55.9 °F 28.9 °F 36% 30.23 in 10.0 mi South 6.9 mph - N/A   Mostly Cloudy
8:53 PM 55.9 °F 28.0 °F 34% 30.23 in 10.0 mi South 9.2 mph - N/A   Mostly Cloudy
9:53 PM 55.9 °F 28.0 °F 34% 30.21 in 10.0 mi South 6.9 mph - N/A   Mostly Cloudy
10:53 PM 55.9 °F 27.0 °F 33% 30.20 in 10.0 mi South 8.1 mph - N/A   Mostly Cloudy
11:53 PM 55.0 °F 27.0 °F 34% 30.17 in 10.0 mi South 5.8 mph - N/A   Overcast